Location: Dreilärchen
(47.9312°N, 8.6113°E)
Time: 20:12:45
(UTC+00:00)

Genesis I - Pass Details

Date: 26 May 2022
Orbit: 463 x 544 km, 64.5° (Epoch: 02 July)

Event Time Altitude Azimuth Distance (km) Brightness Sun altitude
Rises 02:55:20 0° 319° (NW) 2,716 6.9 -6.2°
Reaches altitude 10° 02:57:34 10° 315° (NW) 1,815 5.9 -5.9°
Maximum altitude 03:01:35 59° 236° (WSW) 623 3.3 -5.4°
Drops below altitude 10° 03:05:30 10° 157° (SSE) 1,771 5.8 -4.9°
Sets 03:07:40 0° 153° (SSE) 2,644 6.7 -4.6°
